Weather in Poselok Podsobnogo Khozyaystva Sanatoriya imeni Tsyurupy

Russia / Voronezh Oblast     51°01′54″N   39°51′41″E
temp.,
°C
wind,
m/s
gust,
m/s
humid.,
%
clouds,
%
prec.,
mm/h
press.,
hPa
HPBL,
m
23 october, sat
sat2300:00+11wsw395757 0.0 1012204
03:00+12sw495299 0.0 1012239
06:00+9sw476599 0.0 1013129
09:00+12sw4752100 0.0 1014318
12:00+15s4645100 0.0 1013990
15:00+16wsw71145100 0.0 10111803
18:00+13w6114237 0.0 1013432
21:00+9wnw4105018 0.0 1015321
24 october, sun
sun2400:00+7w49645 0.0 1017280
03:00+4w37735 0.0 1018205
06:00+3wsw368428 0.0 1019134
09:00+5wsw5868100 0.0 1020365
12:00+9w67465 0.0 10191320
15:00+10wnw674049 0.0 10181812
18:00+6wnw485895 0.0 1019185
21:00+6wnw586299 0.1 1021813
25 october, mon
mon2500:00+4nnw597834 0.0 1022736
03:00+2nnw611755 0.1 1024591
06:00+1nnw510765 0.0 1026491
09:00+2nnw69675 0.0 1029742
12:00+5n67425 0.0 10301202
15:00+6nnw573912 0.0 10301312
18:00+3nnw344912 0.0 103267
21:00+1nnw22555 0.0 103213
26 october, tue
tue2600:000w22605 0.0 103311
03:000w22640 0.0 103322
06:00−1wsw22660 0.0 103325
09:00+2wsw35525 0.0 1033221
12:00+7wsw453662 0.0 1032697
15:00+9wsw463133 0.0 1030867
18:00+4sw34425 0.0 103056
21:00+3sw364626 0.0 103094
27 october, wed
wed2700:00+2sw374849 0.0 1030102
03:00+1sw37495 0.0 1029108
06:000sw36495 0.0 1029105
09:00+3sw48381 0.0 1028251
12:00+9sw68251 0.0 1026679
15:00+10sw6822100 0.0 10241003
18:00+6ssw4931100 0.0 1023139
21:00+5sw41032100 0.0 1022240